Location: Devore Heights
(34.2372°N, 117.4156°W)
Time: 07:17:58
(UTC+00:00)

Vanguard 3 - Visible Passes

Search period start: 19 September 2024 00:00
Search period end: 29 September 2024 00:00
Orbit: 507 x 3225 km, 33.4° (Epoch: 18 September)

Date Brightness Start Highest point End Pass type
(mag) Time Alt. Az. Time Alt. Az. Time Alt. Az.
19 Sep 10.5 11:10:14 19° SSW 11:20:20 39° SE 11:37:22 10° E visible
20 Sep 10.6 09:55:52 20° SSE 10:00:13 23° SE 10:12:33 10° E visible
20 Sep 10.3 12:00:01 16° SW 12:13:06 57° SSE 12:32:08 10° ENE visible
21 Sep 10.1 10:45:35 28° S 10:52:09 40° SE 11:08:54 10° E visible
21 Sep 10.2 12:50:22 10° WSW 13:06:36 74° SSE 13:26:18 10° E visible
22 Sep 10.5 09:31:07 22° SE 09:32:18 23° SE 09:43:59 10° E visible
22 Sep 10.1 11:35:16 27° SW 11:44:45 58° SSE 12:03:44 10° ENE visible
23 Sep 9.9 10:20:45 36° SSE 10:24:03 40° SE 10:40:16 10° E visible
23 Sep 10.0 12:24:53 17° WSW 12:38:09 75° SSE 12:58:03 10° E visible
24 Sep 10.6 09:06:11 22° ESE 09:06:11 22° ESE 09:15:19 10° E visible
24 Sep 9.7 11:10:19 38° SSW 11:16:31 59° SSE 11:35:09 10° ENE visible
25 Sep 9.9 09:55:43 40° SE 09:56:06 40° SE 10:11:31 10° E visible
25 Sep 9.8 11:59:50 27° WSW 12:09:48 76° SSE 12:29:35 10° E visible
26 Sep 10.7 08:41:04 18° ESE 08:41:04 18° ESE 08:46:37 10° E visible
26 Sep 9.4 10:45:12 51° SSW 10:48:26 60° SSE 11:06:25 10° ENE visible
26 Sep 10.0 12:49:20 13° WSW 13:03:43 86° S 13:23:50 10° E visible
27 Sep 10.0 09:30:31 37° ESE 09:30:31 37° ESE 09:42:43 10° E visible
27 Sep 9.5 11:34:38 39° WSW 11:41:34 77° SSE 12:00:56 10° E visible
28 Sep 10.9 08:15:49 13° E 08:15:49 13° E 08:17:57 10° E visible
28 Sep 9.3 10:19:56 60° SSE 10:20:28 60° SSE 10:37:35 10° ENE visible
28 Sep 9.8 12:24:04 21° W 12:35:20 86° S 12:55:21 10° E visible
